Weather Roundup
Issued by NWS Corpus Christi, TX

Home | Current Version | Previous Version | Text Only | Print | Product List | Glossary On
Versions: 1 2 3 4 5 6 7 8 9 10 11 12 13 14 15 16 17 18 19 20 21 22 23 24 25 26 27 28 29 30 31 32 33 34 35 36 37 38 39 40 41 42 43 44 45 46 47 48 49 50
000
ASUS44 KCRP 260810
HRRCRP

SOUTH TEXAS REGIONAL WEATHER ROUNDUP
NATIONAL WEATHER SERVICE CORPUS CHRISTI TX
300 AM CDT SUN OCT 26 2014


TXZ229>244-260900-
...CORPUS CHRISTI AREA OBSERVATIONS...

CITY           SKY/WX    TMP DP  RH WIND       PRES   REMARKS
CORPUS CHRISTI CLEAR     63  61  93 CALM      30.06F
NAS CORPUS CHR CLEAR     70  67  90 S3        30.05F
ROCKPORT       CLEAR     65  62  90 SW3       30.06F
KINGSVILLE NAS CLEAR     61  61 100 CALM      30.06F
ALICE          CLEAR     61  59  93 SW3       30.06F
FALFURRIAS     CLEAR     60  58  93 CALM      30.06F
$$

...VICTORIA AREA OBSERVATIONS...

CITY           SKY/WX    TMP DP  RH WIND       PRES   REMARKS
VICTORIA       FOG       60  58  92 CALM      30.07F VSB 3/4
BEEVILLE       FAIR      63  63  98 CALM      30.07S
PLEASANTON     CLEAR     62  60  93 CALM      30.07F
SAN ANTONIO    CLEAR     69  62  78 CALM      30.08F
$$

...LAREDO AREA OBSERVATIONS...

CITY           SKY/WX    TMP DP  RH WIND       PRES   REMARKS
LAREDO         CLEAR     68  61  78 SE7       30.09F
COTULLA        CLEAR     67  60  78 S3        30.06F
DEL RIO        CLEAR     66  58  75 E6        30.04F
MCALLEN        CLEAR     66  65  96 CALM      30.06F
HEBBRONVILLE   CLEAR     60  58  93 S6        30.08F
$$

...OTHER TEXAS OBSERVATIONS...

CITY           SKY/WX    TMP DP  RH WIND       PRES   REMARKS
BROWNSVILLE    CLEAR     66  65  96 S3        30.06F
HOUSTON        CLEAR     58  58 100 CALM      30.06F
COL. STATION   CLEAR     64  58  80 S5        30.06F
AUSTIN         CLEAR     58  57  97 CALM      30.07S
WACO           CLEAR     66  60  81 S8        30.04F
FORT WORTH     CLEAR     71  60  68 S12       30.01F
WICHITA FALLS  CLEAR     67  56  67 S7        29.97F
LUBBOCK        CLEAR     65  50  58 SW14      30.05F
EL PASO        CLEAR     65  45  48 CALM      30.10F
$$

...MARINE OBSERVATIONS...

STATION/POSITION TIME  SKY/WX   TEMP    WIND        PRES    VSBY  WAVE   SWELL
                                AIR SEA DIR/SP/G                  HT/PER HT/PER
                 (UTC)          (F)     (DEG/KT/KT) (MB)    (MI)  (FT/S) (FT/S)
PORT ARANSAS     0800            76 78  160/ 10/ 11 1018.4F
BUOY 90 E PORT A 0800            76 81  140/  6/  8 1018.6F         2/ 7   2/ 7
BUOY 45 SE BAFFI 0800            77 80  160/  6/  8 1017.5F         2/ 8   2/ 8
BUOY 200 E PT IS 0800            76 81   80/  4/  4 1017.8F         3/ 7   2/ 7
BUOY 15 E GALVES 0800            74 77  190/  8/ 10 1017.7F         1/ 7   2/ 7
$$



USA.gov is the U.S. government's official web portal to all federal, state and local government web resources and services.